ECMWFFLT1_500_spd_021.txt.gz
Wind_Speed
24 21 18 14 10 10 14 15 16 19 21 21 20 19 19 20 21 21 22 22 23 23 22 21 21 20 20 21 20 17 15 15 14 14 14 15 14 13 13 13 13 13 13 13 14 15 16 17 18 19 20 21 22 22 23 23 25 26 26 27 28 28 29
21 20 17 13 9 8 12 13 14 16 16 17 17 17 17 17 19 20 22 23 24 24 23 22 21 21 21 22 20 17 16 15 15 15 15 15 14 14 13 14 14 14 14 14 15 16 17 18 19 19 21 22 24 25 25 25 26 27 28 29 30 31 31
22 19 16 12 6 6 9 10 10 12 12 12 12 13 13 15 17 19 21 23 24 24 24 22 21 22 22 21 20 18 17 17 16 16 15 15 14 14 14 14 14 14 15 16 17 18 18 20 21 22 22 23 24 26 27 28 28 28 29 30 31 32 32
23 20 17 12 7 8 9 8 7 8 9 10 10 11 12 13 16 18 19 20 22 22 22 21 22 22 21 21 19 18 18 18 17 16 15 15 15 15 14 14 15 15 16 18 19 20 21 22 24 25 24 25 26 27 28 29 30 31 32 32 32 32 31
25 21 18 14 11 11 10 7 6 7 9 10 10 11 12 14 16 17 17 18 19 19 19 21 22 22 21 20 19 19 19 19 18 17 16 15 15 15 14 15 16 18 18 19 20 21 22 23 25 27 27 28 29 30 30 30 32 34 35 35 35 34 32
25 22 19 16 16 15 13 11 9 9 11 12 11 11 12 14 16 16 15 15 17 17 18 20 22 22 21 21 22 21 20 19 18 17 16 15 15 15 15 16 17 19 20 20 20 21 22 24 26 28 29 30 31 32 33 34 35 35 35 36 38 37 33
25 25 20 19 20 19 17 15 13 13 14 14 12 11 12 13 15 16 15 14 15 17 18 19 21 22 23 23 23 22 20 19 18 18 17 16 16 17 17 17 18 20 20 20 21 21 21 24 26 27 28 30 31 32 33 36 36 36 37 38 40 39 34
25 26 22 20 22 21 19 18 17 16 16 15 13 12 13 14 14 17 15 14 15 16 17 19 21 22 22 23 23 21 20 19 18 17 17 17 17 16 16 18 19 20 20 21 23 23 23 25 26 25 27 28 29 31 33 36 38 39 39 40 41 39 34
22 26 23 22 24 23 20 18 17 17 15 15 15 15 15 15 14 17 17 16 15 14 15 17 19 20 20 20 20 19 19 19 18 17 17 17 16 16 17 19 20 20 22 23 23 22 23 24 25 25 27 28 30 31 33 36 39 40 41 40 38 35 32
25 30 24 25 26 23 19 18 18 18 16 15 16 17 17 17 16 17 19 17 14 12 13 15 16 16 17 17 18 18 18 18 18 18 17 17 17 18 19 20 21 21 23 24 22 21 21 23 25 26 27 29 31 31 33 36 38 39 40 38 33 29 26
30 29 24 26 25 21 20 19 19 19 17 17 17 19 20 19 17 17 19 19 15 12 13 15 14 13 14 16 17 17 18 18 18 18 18 18 18 18 18 19 20 20 21 24 24 22 22 25 25 27 29 30 31 32 34 37 40 42 40 34 26 22 22
30 25 26 28 24 21 23 22 21 19 18 18 19 21 22 20 19 18 19 19 16 14 14 16 15 13 14 17 17 17 18 18 18 19 19 19 18 17 17 19 19 18 19 24 25 23 23 25 26 27 29 30 31 33 35 36 39 38 30 23 20 20 23
33 26 28 29 25 24 25 23 22 20 19 20 21 23 23 21 21 20 18 18 17 16 17 18 17 15 15 17 17 17 18 19 19 20 20 20 19 18 18 20 21 20 20 22 24 24 23 25 27 28 29 30 31 34 36 35 31 25 19 18 21 23 24
40 34 33 31 28 28 26 24 24 22 21 22 23 24 24 22 22 21 18 17 16 17 18 18 18 16 17 19 18 18 19 20 20 20 19 20 20 19 18 21 24 24 23 23 26 28 27 27 28 30 30 29 30 33 35 33 28 24 24 26 27 26 26
40 38 38 35 31 30 28 26 25 23 23 23 24 25 24 23 22 20 18 16 16 17 17 17 17 17 18 19 19 18 20 21 21 20 20 21 20 19 19 22 25 26 26 25 27 30 30 30 30 32 32 31 30 31 33 32 29 29 30 30 29 29 29
38 36 38 38 37 35 32 28 25 24 24 24 25 25 24 23 22 19 18 17 17 17 16 16 17 17 18 18 18 19 20 21 21 21 22 21 19 19 21 23 26 28 28 29 30 31 32 33 33 35 35 34 32 31 30 30 31 32 33 32 30 30 30
37 36 39 40 39 37 34 29 26 25 24 24 25 25 24 23 21 19 19 18 18 17 16 17 17 17 18 18 19 20 20 21 21 21 20 20 19 20 22 24 26 27 28 30 33 35 36 36 36 38 39 38 36 33 30 30 32 34 35 34 31 29 31
39 38 40 39 37 37 34 29 26 24 24 24 26 26 25 23 21 21 21 19 19 18 17 17 17 17 18 20 21 21 21 21 21 19 19 20 20 22 24 26 28 29 30 31 34 36 38 40 39 40 41 40 37 34 31 30 31 32 33 32 31 31 33
41 41 41 39 37 37 35 30 26 25 25 25 27 27 26 25 23 22 22 21 20 20 19 18 18 19 21 22 23 22 21 21 21 20 21 22 23 25 27 29 31 32 33 35 37 38 40 41 41 41 42 41 38 35 33 31 31 30 30 32 33 35 36
41 41 40 38 37 35 34 31 27 25 26 26 28 29 28 26 25 24 24 24 22 21 21 20 20 22 23 25 25 24 23 23 23 23 24 24 26 28 30 32 33 34 36 38 40 41 42 43 43 42 42 40 38 35 33 32 31 29 30 34 35 37 38
41 40 39 40 40 35 32 31 28 26 27 27 29 32 31 28 27 27 27 26 24 23 22 22 22 23 24 26 27 26 26 26 25 26 26 26 28 29 31 34 36 38 40 42 43 45 45 45 45 43 41 38 36 35 33 33 32 30 31 34 36 37 37
43 41 42 46 46 40 34 31 28 28 28 28 31 35 33 30 29 30 29 27 27 26 25 24 24 23 25 26 27 26 27 27 28 28 28 29 30 31 32 35 38 41 43 45 47 48 47 47 45 42 40 37 35 35 34 35 35 32 31 34 36 36 35
45 42 44 47 48 45 38 32 30 32 32 31 34 37 36 32 32 32 31 30 30 30 29 28 27 27 27 28 27 27 28 29 31 31 31 32 33 34 35 37 39 42 45 47 49 50 49 48 45 43 41 39 37 36 36 37 38 35 32 33 35 35 35
46 42 45 49 49 45 38 32 32 36 35 34 36 39 38 35 34 34 34 33 33 33 33 33 32 31 31 31 30 30 31 33 34 34 34 35 37 38 40 41 42 44 46 49 51 51 49 48 46 45 44 42 40 39 37 37 38 36 32 32 34 35 35
44 43 48 52 50 44 36 32 34 38 38 37 39 41 40 39 38 37 36 35 36 36 36 36 35 35 35 34 34 34 35 37 37 37 38 38 39 41 42 42 43 45 47 50 51 50 49 48 47 46 45 44 42 40 36 34 36 36 32 32 34 36 37
47 46 47 47 46 43 37 34 37 40 40 39 40 41 43 42 41 39 38 38 39 39 38 38 38 38 38 37 37 38 39 40 40 41 42 42 42 43 43 42 43 45 48 49 49 49 50 48 47 46 46 44 41 38 35 33 35 36 33 32 35 39 40
44 45 44 43 45 44 38 35 38 41 41 41 41 43 45 45 43 41 41 41 42 41 41 40 40 41 40 40 41 41 42 43 43 45 46 46 46 46 45 43 43 46 49 49 48 49 50 48 47 46 46 43 39 37 36 34 35 35 34 34 38 40 40
40 43 44 44 45 43 38 37 41 43 43 43 43 45 46 45 43 42 43 44 44 43 42 42 42 42 43 43 43 43 44 46 46 47 49 48 47 46 44 43 45 47 49 49 48 49 49 48 47 46 45 42 39 38 37 36 35 35 36 38 39 39 39
39 42 43 43 43 42 40 41 44 45 44 43 44 45 45 43 43 44 44 45 45 43 44 44 44 44 44 45 45 45 46 48 48 49 50 48 46 45 44 45 47 47 48 48 48 48 48 47 46 46 44 42 40 39 38 38 37 37 39 39 38 37 37
36 38 40 43 44 44 44 45 46 46 45 45 45 44 43 44 45 46 47 47 47 46 46 46 45 46 47 47 48 48 49 51 52 51 49 45 44 45 47 48 48 47 47 47 47 47 48 47 46 45 44 42 41 41 41 40 40 40 39 38 40 41 39
34 36 40 43 45 46 47 47 48 47 46 45 45 44 44 45 47 48 49 49 49 49 49 48 48 49 50 50 51 51 50 51 51 48 44 42 44 46 47 48 47 46 46 46 45 46 47 46 46 45 45 43 42 43 44 43 43 41 40 41 42 41 39
34 36 38 41 43 45 47 48 48 47 45 45 45 45 46 46 47 48 50 50 51 51 50 50 51 51 52 54 55 51 46 43 42 41 41 42 44 45 46 46 45 45 45 45 46 47 47 47 46 46 46 45 45 46 45 44 43 42 42 41 39 39 40
34 34 35 38 40 42 45 47 48 48 48 47 46 46 47 48 49 50 50 51 51 51 51 52 53 53 55 58 57 50 43 40 40 41 43 44 45 45 45 44 44 45 45 46 48 49 48 48 47 47 47 47 47 47 46 45 44 43 42 40 39 41 44
34 34 35 37 39 40 43 45 48 50 50 48 47 47 48 49 50 50 50 51 51 52 54 55 55 55 56 57 54 50 46 43 41 43 45 46 46 46 45 45 45 45 46 48 49 49 49 49 49 48 48 48 48 48 47 46 44 43 41 41 43 45 46
35 35 36 38 39 40 42 44 46 48 49 49 49 49 49 49 50 50 51 51 52 54 55 54 52 51 51 51 50 49 48 45 43 44 47 47 47 46 46 46 47 47 48 49 50 49 49 49 49 49 48 48 48 48 48 46 44 43 44 45 46 46 46
36 36 37 39 41 42 42 43 45 46 47 48 49 50 50 50 50 51 51 52 53 54 54 52 49 49 49 50 49 48 47 45 45 47 49 48 48 47 48 48 49 50 50 50 49 49 49 49 49 48 48 48 48 49 48 48 47 47 47 47 47 47 47
37 38 39 41 43 44 44 45 46 47 48 49 50 51 51 51 50 51 51 51 52 52 52 52 51 51 51 51 49 47 47 47 47 49 50 50 49 49 50 51 52 52 51 50 50 50 50 48 48 48 48 49 49 49 49 49 48 48 48 47 47 47 47
39 41 42 43 45 46 47 47 48 48 49 50 51 51 52 52 52 52 52 52 52 54 54 55 56 55 53 50 48 47 48 49 49 50 51 50 50 51 53 53 53 51 51 51 50 50 49 48 48 48 49 49 49 48 48 48 48 47 47 46 46 47 46

ECMWFFLT1_500_spd_024.txt.gz
Wind_Speed
24 26 25 24 21 18 17 15 15 19 21 19 14 14 17 18 20 21 21 22 22 22 23 23 22 21 20 19 20 19 19 19 19 18 16 16 17 17 17 16 14 14 15 16 17 17 17 17 17 18 19 20 21 21 21 22 23 23 23 24 25 26 27
24 22 21 23 21 17 16 15 16 18 19 17 13 12 14 15 16 18 19 21 23 24 24 24 23 22 20 20 20 20 20 21 20 19 17 18 18 18 17 17 15 14 16 17 17 17 17 17 18 19 20 22 23 23 23 24 24 24 24 24 26 27 28
22 17 17 20 19 17 17 17 16 15 13 12 10 8 9 10 12 14 17 20 22 23 24 24 24 23 22 22 22 22 22 22 21 20 19 19 19 19 18 17 16 16 17 17 17 17 18 19 19 20 21 22 23 24 24 24 24 24 25 26 27 28 29
24 19 17 18 18 19 20 18 16 12 9 8 7 7 7 7 9 12 14 17 19 21 22 23 24 25 24 24 24 23 23 22 22 22 21 20 19 19 18 18 17 17 17 16 17 18 19 19 20 20 21 22 23 24 24 24 25 26 27 28 29 30 31
24 21 18 16 17 20 20 19 16 11 8 8 7 6 6 6 8 10 12 14 16 18 19 21 22 23 23 23 23 24 23 22 22 23 22 20 19 19 18 18 17 17 16 16 17 17 18 19 20 20 21 22 23 23 24 25 26 28 29 31 32 32 33
25 25 20 15 19 21 21 20 18 14 12 11 9 9 8 7 6 8 11 12 14 15 17 18 19 20 20 21 22 23 23 23 23 23 22 20 19 19 18 17 17 17 16 17 17 17 17 18 19 20 21 23 23 23 25 27 28 29 32 33 35 36 37
25 31 24 19 20 22 24 22 19 18 17 16 15 12 9 6 6 7 10 11 12 14 15 16 17 17 18 19 21 22 23 23 23 23 22 20 19 19 18 17 16 16 16 16 17 17 18 18 17 18 20 22 23 24 26 28 29 31 33 34 36 38 40
26 35 33 23 18 21 26 25 22 20 18 17 15 12 7 7 8 8 9 11 12 14 14 15 16 16 16 17 19 20 21 22 22 21 20 19 19 18 17 16 16 16 15 15 16 17 17 17 17 17 19 22 23 24 26 28 30 31 32 34 34 36 39
29 37 38 27 22 25 27 28 27 24 22 20 19 14 9 8 9 9 10 11 13 13 14 15 15 14 16 16 17 18 19 19 20 19 18 18 18 18 17 16 15 15 15 15 15 15 15 16 17 18 19 21 22 23 25 27 29 30 31 32 32 32 33
28 34 36 30 29 30 28 27 28 27 24 22 21 15 9 7 9 10 10 10 12 14 15 15 13 12 14 15 15 15 16 17 17 17 17 16 17 17 16 15 14 15 15 14 13 14 15 15 16 17 19 20 21 23 25 27 29 30 31 32 31 29 27
29 32 33 33 34 31 27 28 27 25 24 21 18 13 9 8 11 12 11 10 12 15 16 15 12 11 12 14 14 13 14 16 16 15 16 15 15 16 15 14 14 15 15 15 14 13 15 16 17 19 20 22 23 24 26 28 29 30 31 32 32 29 28
32 35 37 38 37 31 26 28 27 23 23 21 16 14 12 11 12 13 12 11 12 15 17 16 13 11 13 15 15 13 14 16 16 15 15 14 14 15 15 15 15 15 15 16 16 15 15 16 18 20 22 24 25 26 27 29 30 31 31 32 33 32 32
34 36 40 40 38 32 28 30 30 25 25 24 19 17 16 14 14 14 14 12 13 15 17 16 15 13 13 16 16 14 15 16 16 15 14 14 14 14 15 16 16 14 14 17 19 19 18 18 20 21 23 26 28 29 30 31 33 33 33 33 33 33 34
35 33 36 38 37 32 27 31 35 31 29 29 25 21 19 17 16 16 15 15 14 16 16 16 16 15 14 16 17 15 15 18 17 15 14 13 14 15 15 16 17 15 14 16 19 22 22 22 22 24 27 29 32 34 35 36 37 37 36 36 35 34 35
39 36 36 39 38 35 30 34 38 35 31 32 28 25 22 19 17 17 17 17 15 16 17 15 15 15 13 15 17 16 16 18 17 14 13 13 14 15 15 17 18 17 16 16 18 21 23 24 24 26 29 32 34 37 39 40 41 41 40 40 38 36 36
40 39 40 40 38 36 34 35 37 36 34 34 31 28 26 23 20 18 18 18 17 16 17 15 13 14 14 15 16 17 17 18 16 13 13 13 15 15 15 16 17 18 18 17 18 21 23 25 26 29 31 34 36 39 41 42 43 43 43 42 41 38 37
36 32 35 40 40 39 39 39 38 37 37 36 33 30 28 25 21 19 19 19 17 17 18 16 13 14 16 16 16 18 18 16 14 13 13 15 15 15 16 17 18 20 21 21 21 22 25 27 29 31 33 35 38 41 43 43 43 43 43 43 42 40 38
37 33 33 39 42 42 42 41 39 40 41 38 36 34 32 28 23 20 20 18 16 17 19 18 15 15 17 16 16 17 17 15 14 14 15 16 16 17 18 19 20 21 23 25 25 26 28 30 31 32 34 36 39 41 43 44 43 43 42 42 42 41 41
35 38 40 41 41 41 40 38 38 42 43 41 39 37 35 33 27 21 19 19 18 19 20 20 17 16 17 17 16 16 15 15 16 16 16 17 18 19 21 22 22 24 25 27 29 30 32 34 34 35 37 39 41 43 44 44 43 42 42 42 42 42 43
33 38 43 43 42 40 39 37 38 43 45 43 41 38 36 36 32 25 21 21 21 20 21 21 19 16 17 18 16 16 16 17 18 18 18 19 20 21 22 23 24 26 28 29 31 33 36 38 39 40 41 43 44 45 45 45 44 43 43 43 43 43 44
33 35 41 45 45 43 43 40 36 39 44 44 41 40 38 37 34 29 25 24 23 22 22 23 20 17 17 19 17 17 18 18 19 19 19 20 21 22 24 25 26 27 29 32 34 36 38 40 42 43 45 46 46 46 46 46 46 45 44 43 43 43 44
43 40 41 43 45 44 44 43 37 34 39 43 43 42 41 39 36 31 27 25 25 24 23 24 22 19 19 19 18 17 18 18 19 19 19 21 22 24 26 27 28 29 32 34 36 38 40 42 43 44 46 47 47 48 48 46 46 46 44 43 43 43 42
55 52 50 49 50 49 48 49 45 38 37 41 44 43 41 40 39 35 31 28 27 26 26 26 24 21 21 20 19 19 20 21 22 22 23 24 25 27 29 30 31 32 34 36 39 41 43 44 45 46 46 46 48 50 49 47 46 46 43 42 43 42 40
63 63 61 59 58 56 55 55 51 44 39 41 44 44 42 42 41 39 35 32 30 29 29 28 26 24 23 22 23 24 25 26 26 27 27 27 28 31 32 33 34 35 37 39 41 43 45 46 46 45 44 46 49 50 50 48 46 45 43 42 41 39 38
58 62 63 61 58 56 56 53 48 45 43 42 43 44 43 42 42 42 40 36 32 30 31 30 28 27 26 25 26 28 28 30 31 32 31 30 31 33 35 36 37 37 39 41 43 46 49 45 41 41 43 46 49 50 49 48 46 44 43 42 40 37 37
44 51 56 58 55 52 52 50 46 47 47 44 43 44 43 43 44 44 43 39 35 32 32 32 31 29 29 30 31 31 31 33 34 35 35 34 34 36 37 39 40 41 43 45 45 48 49 44 39 41 45 47 48 47 46 46 45 44 43 42 40 39 38
37 40 45 51 48 43 46 49 49 51 50 46 44 46 45 45 46 46 44 41 37 34 33 34 33 33 33 35 34 33 34 35 36 37 37 37 37 38 40 41 43 45 47 49 50 50 47 42 41 44 45 45 45 44 44 44 43 43 42 41 41 40 39
37 35 37 42 40 35 38 45 49 51 49 46 47 50 50 49 50 48 45 42 39 36 36 36 36 36 37 37 37 36 36 37 38 39 39 40 40 41 42 44 45 47 50 53 54 50 44 42 43 44 44 43 43 43 43 43 42 43 42 42 41 41 41
40 38 38 39 39 36 38 42 45 45 43 42 47 52 52 52 51 48 45 42 40 39 39 38 38 38 38 39 38 38 39 40 41 41 42 42 43 43 45 46 47 49 50 50 48 43 41 43 43 43 43 43 43 43 43 43 43 44 44 44 44 44 43
40 40 39 37 36 38 42 45 43 40 38 41 48 53 53 52 50 47 45 44 42 42 41 40 38 38 39 40 41 41 42 42 43 43 44 45 46 46 47 48 49 50 48 45 43 41 42 43 43 43 43 43 43 44 44 44 45 46 46 46 47 46 45
37 38 40 39 38 40 45 47 45 42 42 46 52 55 54 51 48 46 46 45 44 42 41 40 40 40 41 42 43 44 45 45 45 45 46 48 49 50 50 49 49 50 47 45 45 45 44 44 43 43 43 43 44 44 45 46 47 47 48 48 48 47 47
31 35 40 42 43 43 45 47 46 46 46 49 52 53 51 48 47 47 46 45 43 42 42 43 43 43 44 44 45 46 46 47 46 47 49 50 52 53 52 50 49 48 46 45 47 48 47 45 44 44 44 44 45 45 46 47 48 48 49 49 48 48 47
31 37 43 46 45 42 42 44 45 46 46 48 50 49 47 46 46 45 45 44 44 44 45 46 45 45 45 46 46 47 47 47 48 49 51 52 53 55 55 54 52 48 44 44 47 49 48 46 45 44 45 45 46 47 47 48 48 49 49 48 47 48 48
32 38 44 45 42 41 41 43 43 43 45 47 48 46 45 44 44 44 45 46 46 47 47 46 46 46 46 47 47 48 48 49 50 51 52 53 55 56 57 57 55 48 43 44 47 49 49 47 45 45 46 46 47 48 48 48 49 49 49 48 48 48 49
31 36 42 42 40 41 41 39 37 38 41 45 47 47 46 46 46 45 46 46 47 47 47 47 47 47 47 48 49 49 49 50 51 52 53 55 56 56 56 56 52 45 43 45 47 49 49 48 46 46 47 47 48 48 49 49 49 49 49 49 49 49 50
32 36 41 42 41 41 38 35 34 35 38 42 45 48 49 48 47 46 46 46 47 48 48 49 48 48 49 50 50 50 50 51 52 53 54 56 57 56 56 55 51 45 43 45 48 50 50 48 46 47 47 47 48 49 49 49 49 49 49 49 50 50 50
33 37 41 42 42 39 36 35 34 35 36 39 43 46 48 49 48 47 47 47 48 49 50 50 51 51 52 51 51 51 51 52 53 54 55 57 56 56 57 56 52 46 45 48 50 51 49 47 46 46 47 47 49 49 49 49 49 49 50 50 50 50 49
35 39 41 42 41 38 36 36 36 36 37 39 41 43 44 45 46 46 47 48 49 50 51 52 53 54 54 54 53 53 53 53 54 54 54 54 55 57 58 57 53 48 48 51 51 50 48 46 46 47 47 48 49 49 48 48 49 49 50 49 49 49 49

ECMWFFLT1_500_spd_030.txt.gz
Wind_Speed
21 21 19 19 21 21 21 22 22 20 20 21 21 22 22 21 20 20 19 20 20 20 20 19 18 18 17 18 18 17 16 14 13 13 13 13 13 13 13 13 12 12 11 11 10 9 9 9 9 9 10 11 12 13 14 14 15 16 16 16 16 15 15
21 21 21 21 21 21 21 22 22 21 21 22 23 23 22 21 21 20 20 21 21 22 22 22 21 20 20 20 20 20 18 17 16 15 15 16 16 16 15 14 13 13 13 12 11 10 9 9 9 10 10 11 12 13 14 15 15 16 16 16 15 15 16
21 22 23 23 22 22 22 22 21 22 22 23 24 23 22 21 21 20 20 21 22 23 23 23 24 23 23 22 22 22 21 19 18 17 18 19 19 18 16 15 14 14 14 13 12 10 9 9 9 10 10 11 12 13 14 14 15 15 16 15 15 17 18
19 21 22 23 22 24 25 22 21 22 22 23 24 24 22 21 20 20 20 21 22 23 24 25 26 26 26 25 23 24 23 22 20 20 21 22 21 20 17 16 15 15 15 14 12 11 10 9 9 9 11 12 13 14 15 14 14 14 15 15 16 18 20
17 17 19 22 22 22 23 21 21 22 23 24 25 23 22 20 18 18 19 20 21 23 24 26 27 27 27 26 25 24 24 24 23 23 23 24 23 21 18 17 16 16 15 15 12 11 10 9 8 9 10 12 13 14 14 14 13 14 14 16 17 18 20
14 14 15 20 22 22 22 21 21 21 22 24 25 23 21 18 15 16 18 19 20 21 22 23 25 26 26 27 26 25 25 25 24 25 25 25 24 22 19 18 17 16 15 15 12 10 9 9 8 9 10 11 12 12 12 13 14 14 15 16 17 18 20
15 14 13 16 21 24 24 22 21 21 22 24 25 23 19 15 13 15 17 18 19 20 20 21 22 24 25 26 26 26 25 26 26 26 26 25 23 21 19 17 16 17 16 14 12 10 9 8 8 9 10 11 11 12 13 14 15 15 15 16 17 19 21
17 16 15 14 17 21 22 21 22 23 24 25 23 19 15 13 13 14 15 16 17 18 18 19 20 21 23 24 25 26 25 25 25 23 23 21 19 18 17 16 17 17 15 14 12 10 9 8 8 9 10 10 12 13 14 14 14 15 16 18 19 20 21
20 19 18 16 15 17 17 19 23 24 24 23 19 15 13 13 13 12 13 15 15 15 15 17 18 19 20 21 22 23 23 22 20 18 18 17 16 16 16 17 17 17 15 15 13 11 9 8 9 10 10 11 13 14 15 15 15 16 18 20 21 22 23
21 19 21 20 17 17 18 20 25 27 25 21 17 14 12 12 12 13 14 14 13 13 14 15 16 17 18 19 20 20 19 17 16 16 15 15 16 16 17 18 18 17 16 15 13 11 10 9 10 11 11 12 14 15 16 16 16 17 19 21 23 25 26
21 20 22 22 19 18 20 24 28 29 27 21 16 13 11 12 13 15 17 15 14 15 15 16 16 17 17 18 19 18 16 15 15 15 16 16 17 17 18 18 18 17 16 15 13 12 11 10 11 12 12 13 14 16 17 17 17 18 21 24 26 28 29
22 21 21 22 21 18 21 28 31 30 27 21 15 13 13 15 15 16 19 19 18 18 18 18 19 18 18 19 19 17 16 15 15 16 17 17 18 18 19 19 18 18 17 15 14 13 12 12 12 13 14 15 16 17 17 17 18 20 23 26 29 30 32
23 22 22 23 23 20 21 28 33 33 27 20 16 15 17 19 19 19 21 22 22 22 21 21 21 19 19 20 20 18 17 16 16 17 18 18 19 19 19 19 19 18 18 16 15 14 13 12 13 14 16 16 17 18 18 18 19 21 24 27 30 32 33
26 22 21 23 25 22 19 23 32 36 30 23 20 20 21 23 23 22 22 24 26 26 24 24 23 21 19 20 21 20 19 18 19 20 19 20 20 20 19 19 19 19 19 17 15 14 13 13 14 16 17 18 18 19 19 19 19 22 24 27 30 32 34
27 24 23 24 24 23 20 21 28 32 29 24 23 24 25 26 24 22 22 24 27 27 25 25 23 21 19 20 20 21 22 23 22 22 22 21 21 20 19 19 20 20 19 17 16 15 14 14 15 17 18 18 18 18 18 19 20 22 25 27 30 33 34
29 30 31 30 29 27 24 23 23 25 25 25 26 28 29 27 23 20 20 22 25 27 26 25 24 21 18 18 20 22 25 26 26 25 25 23 22 21 21 21 22 22 20 18 17 15 15 15 16 17 18 18 18 18 18 20 22 24 25 28 31 33 35
31 36 38 35 33 31 27 25 23 25 26 28 30 31 31 28 23 21 22 23 25 28 28 27 26 22 18 18 21 23 25 28 28 27 26 25 24 23 23 24 24 23 21 19 17 16 16 16 16 18 18 18 17 18 20 22 23 25 27 29 32 34 36
31 34 34 31 28 28 28 29 28 29 31 33 34 33 32 30 27 26 27 26 27 29 31 30 27 23 20 20 22 24 26 28 28 27 26 26 25 25 25 26 25 23 21 19 18 17 17 16 16 17 17 17 17 19 20 21 23 25 28 30 33 35 37
37 36 35 34 33 33 34 35 35 35 36 37 37 35 32 32 32 33 32 30 28 29 32 32 29 26 24 23 24 25 27 29 30 28 26 25 26 27 28 27 26 23 21 19 19 18 17 15 15 16 15 16 16 17 18 20 22 25 28 31 34 37 37
44 44 43 43 43 42 40 40 38 37 37 37 36 34 34 35 36 38 37 33 30 30 32 32 31 30 28 26 25 27 28 29 30 29 27 27 28 30 29 28 26 23 21 21 20 18 16 15 15 15 15 16 17 18 18 20 23 26 28 31 34 36 34
43 47 48 48 49 49 46 43 39 37 36 36 36 36 37 39 40 42 42 39 35 33 33 32 32 32 32 30 28 28 29 29 29 29 28 29 30 31 30 28 26 24 23 21 19 17 16 16 15 15 17 18 20 20 20 21 24 27 30 33 35 36 33
39 45 49 51 51 53 53 49 43 39 36 35 38 40 40 42 43 44 45 44 40 36 35 35 34 34 34 33 31 30 30 30 30 30 30 31 32 32 31 29 27 25 23 21 19 18 17 16 16 17 19 21 21 22 22 24 26 30 32 35 38 38 36
43 47 51 52 51 51 52 50 46 43 39 37 37 39 41 43 44 45 47 47 41 35 35 36 36 35 35 36 35 33 32 31 31 31 31 32 33 32 31 29 27 25 24 21 19 18 17 17 18 19 20 21 22 23 24 26 29 32 33 36 39 40 39
48 50 51 49 46 44 43 43 43 43 42 40 41 43 43 43 43 43 45 45 40 36 34 34 36 36 36 37 37 34 33 33 33 32 32 33 34 32 31 29 27 25 23 21 19 18 18 18 19 20 21 21 23 25 26 28 30 33 34 36 39 41 41
52 51 49 46 42 40 40 39 40 42 42 44 47 47 46 47 47 46 46 45 42 39 35 34 35 37 37 37 37 36 36 35 35 34 33 33 33 32 30 28 27 25 24 22 20 19 19 20 21 22 22 22 24 27 28 30 33 35 36 38 41 43 43
58 55 52 50 47 45 44 42 41 42 45 47 49 49 48 51 54 53 50 48 45 43 39 35 35 37 37 38 39 39 38 38 37 36 33 32 31 29 28 28 27 26 24 23 21 20 21 22 23 24 24 24 26 29 30 32 36 38 38 40 42 44 45
59 60 58 56 54 51 50 49 47 46 48 49 50 51 53 54 56 55 52 49 49 48 44 40 38 39 40 41 41 41 40 40 38 36 33 31 30 29 29 29 27 26 25 24 23 22 23 24 25 25 26 26 28 30 32 34 37 39 41 43 44 45 47
50 57 60 61 61 58 55 55 54 53 53 53 52 54 56 57 58 57 55 54 53 52 49 46 44 43 43 44 44 43 42 41 40 38 35 32 32 33 32 30 29 28 28 27 25 25 26 27 27 28 28 28 30 31 33 36 39 40 43 44 45 47 48
45 47 51 56 61 62 61 61 61 60 58 57 56 57 58 59 61 61 60 60 60 57 54 53 51 48 48 47 46 45 44 42 42 41 39 36 36 37 36 34 32 32 32 30 29 29 30 30 30 31 30 31 31 32 35 38 40 42 44 45 46 48 46
46 45 45 46 50 54 57 61 64 65 63 62 62 63 63 62 61 61 61 61 61 59 57 56 54 53 51 49 45 44 45 45 45 46 43 41 40 41 40 38 36 36 36 34 33 33 34 34 34 34 33 33 33 33 36 39 41 44 46 47 47 46 44
46 45 46 46 45 46 47 50 54 56 56 57 60 64 68 69 67 65 63 61 60 60 60 59 58 57 56 52 47 45 45 46 47 48 47 45 44 44 43 42 40 40 40 38 37 37 38 37 37 36 34 34 34 35 38 40 42 45 48 48 46 45 44
49 47 47 48 47 46 45 45 45 46 46 46 49 53 60 67 72 72 70 67 66 65 64 62 62 62 60 58 54 50 47 47 50 51 50 48 48 48 47 46 45 44 43 41 41 41 42 40 38 35 33 34 34 36 39 42 44 46 48 48 47 45 44
55 53 52 51 50 48 47 46 45 44 44 45 46 47 49 55 63 70 73 71 69 68 67 65 64 65 65 63 62 58 53 50 52 54 52 51 51 52 51 50 48 47 47 46 44 43 44 42 38 34 33 33 34 37 40 43 45 47 48 50 49 46 45
53 55 55 55 53 51 51 50 49 48 47 48 48 49 49 50 53 58 63 65 66 69 71 69 68 69 70 71 72 70 65 58 56 56 55 53 54 55 53 52 52 52 52 50 45 44 44 41 36 34 33 34 36 39 41 43 46 48 50 52 51 47 45
48 50 52 53 52 52 52 53 53 53 53 53 53 54 54 54 53 54 56 57 58 62 68 73 75 76 77 78 77 75 72 66 59 58 58 56 56 56 53 51 54 55 52 49 46 44 42 38 34 34 35 36 38 40 41 43 46 48 50 51 50 48 46
46 47 47 48 49 50 51 53 56 57 58 58 60 60 61 61 60 59 59 58 57 57 61 67 75 80 83 85 82 78 75 70 62 59 60 58 57 57 55 53 53 52 49 49 47 42 37 35 35 36 36 38 40 41 41 43 45 46 47 50 51 50 47
45 45 45 46 46 47 49 51 54 56 59 61 64 64 64 65 64 63 62 62 62 63 65 67 70 75 80 85 86 80 74 69 64 60 61 61 59 58 57 54 52 49 47 46 43 38 35 36 37 38 39 40 41 41 42 43 44 45 47 50 50 49 48
45 44 44 45 46 47 48 50 50 52 55 58 60 60 60 63 64 63 64 63 61 61 66 70 71 69 67 69 75 75 69 65 64 60 59 60 58 56 55 52 49 46 43 41 39 37 37 38 39 40 40 41 41 42 43 43 44 46 49 51 51 51 51

ECMWFFLT1_500_spd_033.txt.gz
Wind_Speed
13 12 13 13 14 17 19 22 22 20 20 21 21 21 21 21 21 20 19 19 19 19 19 18 17 16 15 14 14 15 14 13 13 14 15 15 15 15 14 13 12 12 13 13 13 11 10 9 9 8 6 5 4 5 6 8 9 11 11 11 11 12 12
16 14 13 13 14 15 17 22 24 23 22 22 23 23 22 22 21 20 20 21 21 21 22 21 20 19 18 18 17 17 16 15 15 16 17 17 17 17 16 15 15 14 15 14 14 14 12 11 9 8 7 6 5 6 7 8 10 11 11 11 11 12 13
17 15 13 13 13 13 16 21 24 24 23 23 24 24 23 22 20 20 21 22 22 22 22 21 21 20 20 20 19 19 18 18 18 18 18 19 19 20 19 18 17 17 16 15 16 15 14 12 10 9 8 7 6 7 8 9 10 10 10 11 11 13 15
14 13 13 11 9 11 15 20 23 23 22 22 23 24 24 22 21 21 22 21 20 20 19 20 21 22 23 22 22 21 20 20 20 20 20 21 23 23 22 20 19 19 18 17 17 17 15 13 12 10 9 7 7 8 9 9 9 9 9 11 13 15 16
14 13 12 8 5 9 14 19 22 24 23 21 22 24 24 23 22 22 21 19 18 18 18 19 20 21 22 23 23 23 23 23 22 22 23 24 25 25 24 23 22 21 21 19 18 17 16 14 13 11 9 8 8 8 9 10 9 9 10 12 14 15 16
14 13 11 6 3 8 13 19 22 23 23 21 22 24 25 25 24 22 20 18 18 18 17 17 17 18 20 21 23 23 24 24 24 24 25 26 27 26 26 26 25 23 23 21 19 18 17 15 14 11 10 9 8 8 9 10 10 10 11 13 14 15 15
14 12 12 6 4 8 12 17 22 22 21 21 23 25 26 26 24 21 20 19 18 18 17 16 15 15 17 18 21 23 24 25 25 26 26 27 27 27 27 28 27 26 25 22 20 19 18 16 15 12 11 9 9 9 9 10 11 12 13 14 14 14 15
14 13 12 6 5 8 11 14 19 21 20 22 25 26 27 27 24 21 19 19 19 17 15 14 13 13 15 16 18 20 22 24 26 27 27 27 28 28 29 29 29 28 25 22 21 21 19 17 15 13 12 10 9 9 10 11 12 13 13 14 14 14 15
14 14 12 9 8 10 12 13 16 20 22 23 25 26 27 26 23 19 18 19 20 17 13 13 13 12 13 14 16 18 21 23 25 26 27 28 28 29 29 30 30 27 24 22 23 22 20 18 16 14 13 11 10 10 11 12 13 14 14 14 13 14 16
19 18 16 13 11 12 15 15 16 19 22 23 23 23 24 23 22 20 20 21 20 15 12 13 13 12 12 12 14 17 19 21 22 24 25 26 27 28 29 30 29 25 23 24 24 22 21 19 17 15 13 12 12 12 12 13 14 14 14 13 14 15 17
23 22 19 16 14 15 18 18 18 19 21 21 20 21 22 22 23 23 22 20 17 14 14 14 13 12 12 12 13 15 16 18 19 19 20 22 24 25 27 28 27 25 25 25 24 23 22 20 18 16 14 13 13 12 13 14 15 15 14 14 15 17 19
26 26 23 19 16 17 20 21 20 20 20 21 20 21 22 23 24 24 21 19 16 16 16 16 14 13 12 12 12 13 15 15 15 15 17 19 21 24 26 27 27 26 26 25 25 24 23 21 19 17 16 15 14 13 13 14 15 15 15 15 16 18 20
30 29 26 21 19 19 21 23 21 19 20 21 23 23 23 24 24 23 20 17 16 16 17 17 17 16 14 13 13 13 15 15 15 15 16 18 21 24 26 27 27 26 26 26 26 25 24 22 20 19 18 16 14 14 14 14 15 16 16 16 18 19 21
32 31 28 26 25 24 24 24 23 20 19 21 25 26 24 24 24 22 20 18 16 16 17 18 19 18 17 15 14 13 15 16 16 17 18 19 22 24 26 26 26 26 26 27 27 26 25 23 22 21 20 17 15 15 14 14 15 16 16 17 19 20 22
32 30 30 29 28 26 26 26 24 22 20 23 27 27 25 24 22 21 21 20 18 17 18 20 21 20 19 17 15 15 16 17 17 19 20 21 22 24 25 25 25 26 27 27 27 27 26 25 24 23 20 18 16 15 14 14 15 15 16 17 19 21 23
34 32 30 30 30 28 28 28 26 23 22 25 30 30 26 24 23 23 22 21 19 17 18 21 23 24 22 18 16 18 19 18 18 19 21 23 23 24 24 25 26 27 27 27 28 28 28 27 25 22 20 19 17 15 14 14 15 15 16 17 19 22 24
37 35 33 32 33 31 30 31 30 25 23 26 31 33 30 27 25 25 24 23 20 18 18 20 23 25 24 20 19 21 22 20 20 20 20 22 24 26 26 27 27 28 28 28 29 29 29 28 25 21 20 20 17 15 14 15 16 16 16 17 19 22 23
37 37 37 35 34 33 32 32 31 27 24 25 27 31 34 32 29 28 27 24 21 19 20 21 21 22 23 21 22 24 24 22 22 21 20 21 24 27 28 29 29 29 29 30 30 30 30 28 24 21 21 20 17 15 15 16 17 16 15 17 20 22 22
40 38 38 37 37 37 35 33 31 28 25 24 24 26 32 34 31 30 28 25 23 23 23 22 21 21 22 24 25 26 26 25 25 24 22 22 24 27 29 30 31 31 31 31 32 31 30 27 23 22 22 20 17 16 15 16 16 15 14 16 20 22 23
43 42 40 37 36 37 36 33 30 26 24 25 23 22 28 32 32 31 30 28 28 27 25 23 22 22 24 26 28 29 29 28 27 26 25 24 26 28 30 30 31 31 32 33 34 33 30 26 24 23 23 21 18 17 16 16 16 15 15 17 21 23 23
44 43 43 40 38 37 36 33 29 26 27 28 26 24 28 31 32 34 35 33 31 30 29 28 27 27 28 29 30 31 31 31 30 29 28 28 27 28 30 30 31 32 33 35 35 34 30 27 25 25 23 21 20 18 17 18 17 15 15 18 22 24 24
46 44 44 43 41 38 36 35 32 30 29 31 30 28 30 31 33 38 40 36 32 32 33 33 32 32 32 31 32 32 33 33 32 31 31 31 30 30 30 31 31 32 33 35 36 35 32 29 27 25 24 23 21 19 19 20 18 16 17 20 24 25 25
47 47 45 43 43 41 39 38 37 35 34 35 35 35 34 33 36 41 41 37 34 35 36 37 36 34 33 33 33 34 35 35 35 33 33 33 33 31 31 32 32 32 33 35 37 37 34 31 27 26 25 25 23 22 22 21 19 17 19 22 24 25 26
46 47 46 44 43 43 42 42 41 41 40 41 42 42 40 38 39 41 40 38 38 40 40 39 38 37 36 35 35 34 35 36 36 36 35 36 35 33 33 33 33 32 32 34 38 38 34 31 29 28 28 27 26 25 24 22 20 20 22 25 26 26 26
45 47 46 45 45 45 45 45 45 45 44 45 45 45 44 43 42 43 41 40 42 45 44 41 39 40 41 39 35 33 34 36 37 37 38 38 37 36 35 34 33 33 33 35 38 38 36 33 32 31 30 28 27 27 26 24 23 23 25 27 27 27 28
45 48 48 48 49 49 48 48 48 47 46 45 45 45 44 42 41 43 45 46 48 49 47 44 42 42 44 42 37 33 35 36 37 38 39 39 39 38 37 35 34 34 34 36 37 38 37 36 34 33 31 29 28 29 28 26 26 26 27 28 29 29 29
46 49 51 52 52 51 51 50 49 48 46 44 44 45 44 42 42 44 46 48 50 49 47 46 46 46 46 44 39 35 35 36 37 38 39 40 41 41 40 38 36 36 36 36 38 38 38 37 35 34 33 31 30 31 30 29 29 29 30 30 29 30 31
48 50 52 54 54 53 52 51 49 49 48 47 46 46 46 45 46 47 47 48 49 48 47 48 49 49 47 45 43 41 39 38 38 38 39 40 42 43 42 40 39 38 38 38 38 38 38 37 37 36 35 33 32 34 34 33 32 32 33 32 31 30 31
47 49 52 53 54 55 54 53 52 52 52 51 50 49 48 47 46 47 48 48 47 46 46 47 49 50 49 48 48 47 44 41 40 40 41 42 43 43 43 43 42 40 40 40 40 39 39 39 39 39 37 35 35 36 36 35 36 37 37 35 32 30 31
43 45 48 51 53 55 56 56 56 56 56 55 54 53 52 51 50 49 49 49 48 47 46 47 48 49 49 49 49 48 46 45 45 46 45 45 45 44 44 46 46 45 43 42 41 41 40 40 41 41 40 38 38 40 39 38 39 42 40 35 32 31 31
41 41 42 44 47 50 53 55 56 57 57 56 56 55 54 54 54 53 53 53 53 53 52 51 50 51 51 51 51 51 51 51 52 53 50 48 48 48 47 47 48 50 49 46 45 44 44 43 43 43 43 42 42 42 42 42 43 45 41 35 32 32 33
43 42 40 40 41 42 44 45 46 47 48 50 52 54 54 54 55 55 55 57 57 58 58 57 55 55 54 53 53 54 55 56 57 57 54 51 51 51 51 51 51 52 53 52 51 49 48 48 48 48 48 47 45 45 46 46 46 47 43 35 32 33 34
45 44 43 42 42 42 42 43 43 43 43 44 46 50 52 54 55 56 56 57 59 60 61 61 61 62 61 60 59 59 60 61 61 61 57 55 55 55 56 57 55 53 54 55 56 56 54 53 55 57 57 53 49 48 49 49 49 48 43 36 34 34 35
48 47 46 46 45 45 45 46 46 46 45 45 45 46 48 50 53 55 56 57 58 59 61 62 62 62 63 63 63 62 62 63 65 66 64 63 61 59 58 60 59 56 56 57 59 61 60 58 60 62 62 58 56 54 53 52 51 47 40 35 34 35 37
52 50 50 50 50 50 50 50 49 48 47 47 47 47 48 49 50 52 53 55 56 57 58 58 57 56 55 56 56 57 57 58 60 64 66 68 69 66 63 62 61 59 59 60 63 64 62 61 64 64 61 58 57 57 56 51 46 42 36 33 35 37 39
56 55 54 54 54 54 53 53 52 52 51 51 51 51 50 50 50 51 51 52 53 54 54 54 53 53 53 53 54 55 56 57 58 60 62 64 67 69 69 68 65 63 62 62 64 65 64 67 70 67 62 59 57 55 54 46 37 33 32 33 37 40 42
59 59 59 58 56 55 54 52 51 51 52 53 55 55 54 53 52 51 51 51 51 51 52 52 53 53 53 54 55 57 59 60 60 61 62 63 64 66 69 71 72 71 70 69 69 68 65 68 72 68 64 62 60 56 50 41 32 30 33 37 40 42 44
59 60 60 59 57 56 55 53 50 49 50 50 51 53 54 54 54 54 53 52 51 51 52 52 53 55 55 56 59 61 62 63 64 65 67 68 68 68 70 71 73 75 76 75 75 73 67 63 65 67 65 63 63 60 51 40 33 33 37 40 42 44 45